Weather History for Bucuresti / Imh, Romania

Change the Weather History Date:

Friday, January 15, 2010

  Actual Average Record
Temperature  
Mean Temperature 34 °F -  
Max Temperature 39 °F 37 °F - ()
Min Temperature 30 °F 24 °F - ()
Degree Days  
Heating Degree Days 30    
Moisture  
Dew Point 29 °F    
Average Humidity 80    
Maximum Humidity 100    
Minimum Humidity 46    
Precipitation  
Precipitation 0.00 in 0.05 in - ()
Sea Level Pressure  
Sea Level Pressure 30.18 in    
Wind  
Wind Speed 2 mph ()    
Max Wind Speed 7 mph    
Max Gust Speed -    
Visibility 5.7 miles    
Events Snow    
T = Trace of Precipitation, MM = Missing Value Source: Averaged Metar Reports

Daily Weather History Graph

Daily Weather History Graph

Search for Another Location

Airport:

Trip Planner

Search our weather history database for the weather conditions in past years. The results will help you decide how hot, cold, wet, or windy it might be!

Date:

Astronomy

Jan. 15, 2010 Rise Set
Actual Time 7:48 AM EET 5:01 PM EET
Civil Twilight 7:16 AM EET 5:33 PM EET
Nautical Twilight 6:40 AM EET 6:09 PM EET
Astronomical Twilight 6:05 AM EET 6:44 PM EET
Moon 7:51 AM EET (1/15) 5:17 PM EET (1/15)
Length of Visible Light 10h 17m
Length of Day
9h 12m
New Moon, 0% of the Moon is Illuminated
Jan 15
New Moon
Jan 23
First Quarter
Jan 30
Full
Feb 6
Last Quarter
Feb 14
New

Hourly Weather History & Observations

Time (EET) Temp. Windchill Dew Point Humidity Pressure Visibility Wind Dir Wind Speed Gust Speed Precip Events Conditions
12:00 AM 31 °F - 26 °F 76% 30.08 in 6 mi SE 4.5 mph - -   Overcast
12:00 AM 32.0 °F - 30.2 °F 93% 30.06 in 6.2 mi SSE 1.2 mph - N/A   Overcast
12:30 AM 33.8 °F - 30.2 °F 87% 30.06 in 6.2 mi Calm Calm - N/A   Overcast
1:00 AM 31 °F - 26 °F 75% 30.09 in 6 mi Calm Calm - -   Overcast
1:00 AM 33.8 °F - 30.2 °F 87% 30.06 in 6.2 mi Calm Calm - N/A   Overcast
1:30 AM 32.0 °F - 30.2 °F 93% 30.06 in 6.2 mi Calm Calm - N/A   Overcast
2:00 AM 31 °F - 27 °F 80% 30.10 in 6 mi ENE 2.2 mph - -   Overcast
2:00 AM 32.0 °F 28.7 °F 32.0 °F 100% 30.09 in - ESE 3.5 mph - N/A   Mostly Cloudy
2:30 AM 32.0 °F 28.7 °F 30.2 °F 93% 30.09 in 6.2 mi SE 3.5 mph - N/A   Overcast
3:00 AM 31 °F - 27 °F 79% 30.11 in 6 mi East 4.5 mph - -   Overcast
3:00 AM 32.0 °F - 30.2 °F 93% 30.09 in 6.2 mi ESE 1.2 mph - N/A   Mostly Cloudy
3:30 AM 32.0 °F - 30.2 °F 93% 30.09 in 6.2 mi SE 1.2 mph - N/A   Scattered Clouds
4:00 AM 31 °F - 26 °F 76% 30.11 in 6 mi ENE 2.2 mph - -   Overcast
4:00 AM 32.0 °F - 30.2 °F 93% 30.09 in 6.2 mi SE 2.3 mph - N/A   Mostly Cloudy
4:30 AM 32.0 °F 28.7 °F 30.2 °F 93% 30.09 in 6.2 mi ESE 3.5 mph - N/A   Mostly Cloudy
5:00 AM 31 °F - 27 °F 80% 30.11 in 6 mi East 2.2 mph - -   Overcast
5:00 AM 32.0 °F - 30.2 °F 93% 30.09 in 6.2 mi SE 2.3 mph - N/A   Mostly Cloudy
5:30 AM 32.0 °F - 30.2 °F 93% 30.09 in 5.0 mi SE 2.3 mph - N/A Snow Light Snow
6:00 AM 31 °F - 28 °F 81% 30.12 in 6 mi East 4.5 mph - -   Overcast
6:00 AM 32.0 °F - 30.2 °F 93% 30.12 in 5.0 mi SE 2.3 mph - N/A Snow Light Snow
6:30 AM 32.0 °F - 28.4 °F 87% 30.12 in 5.0 mi SE 2.3 mph - N/A Snow Light Snow
7:00 AM 31 °F - 27 °F 79% 30.13 in 6 mi ESE 2.2 mph - -   Overcast
7:00 AM 32.0 °F 28.7 °F 30.2 °F 93% 30.12 in 5.0 mi ESE 3.5 mph - N/A Snow Light Snow
7:30 AM 32.0 °F - 30.2 °F 93% 30.12 in 5.0 mi SE 2.3 mph - N/A   Overcast
8:00 AM 31 °F - 26 °F 75% 30.15 in 6 mi ESE 4.5 mph - -   Overcast
8:00 AM 32.0 °F - 28.4 °F 87% 30.15 in 5.0 mi Calm Calm - N/A   Overcast
8:30 AM 33.8 °F - 30.2 °F 87% 30.15 in 5.0 mi Calm Calm - N/A   Overcast
9:00 AM 32 °F - 27 °F 73% 30.17 in - Calm Calm - -  
9:00 AM 33.8 °F - 30.2 °F 87% 30.15 in 5.0 mi ESE 2.3 mph - N/A   Overcast
9:30 AM 33.8 °F - 30.2 °F 87% 30.15 in 5.0 mi Calm Calm - N/A   Overcast
10:00 AM 33 °F - 26 °F 67% 30.18 in - Calm Calm - -  
10:00 AM 33.8 °F - 30.2 °F 87% 30.18 in 5.0 mi Calm Calm - N/A   Overcast
10:30 AM 35.6 °F - 30.2 °F 81% 30.18 in 5.0 mi Calm Calm - N/A   Overcast
11:00 AM 34 °F - 26 °F 62% 30.20 in - WSW 2.2 mph - -  
11:00 AM 35.6 °F - 30.2 °F 81% 30.18 in 5.0 mi Calm Calm - N/A   Overcast
11:30 AM 35.6 °F 32.8 °F 30.2 °F 81% 30.18 in 5.0 mi WNW 3.5 mph - N/A   Overcast
12:00 PM 34 °F - 26 °F 61% 30.20 in - North 4.5 mph - -  
12:00 PM 35.6 °F 31.7 °F 30.2 °F 81% 30.18 in 6.2 mi West 4.6 mph - N/A   Overcast
12:30 PM 35.6 °F 31.7 °F 30.2 °F 81% 30.18 in 6.2 mi West 4.6 mph - N/A   Overcast
1:00 PM 35 °F - 26 °F 60% 30.20 in 6 mi 4.5 mph - -   Clear
1:00 PM 35.6 °F 30.7 °F 30.2 °F 81% 30.18 in 6.2 mi WSW 5.8 mph - N/A   Overcast
1:30 PM 37.4 °F 32.8 °F 30.2 °F 75% 30.18 in 6.2 mi West 5.8 mph - N/A   Mostly Cloudy
2:00 PM 37 °F - 26 °F 52% 30.19 in 6 mi North 6.7 mph - -   Mostly Cloudy
2:00 PM 37.4 °F 32.8 °F 30.2 °F 75% 30.18 in 6.2 mi West 5.8 mph - N/A   Mostly Cloudy
2:30 PM 37.4 °F 33.8 °F 30.2 °F 75% 30.18 in 6.2 mi WNW 4.6 mph - N/A   Scattered Clouds
3:00 PM 38 °F - 26 °F 49% 30.19 in 6 mi WSW 4.5 mph - -   Partly Cloudy
3:00 PM 37.4 °F 33.8 °F 30.2 °F 75% 30.18 in 6.2 mi West 4.6 mph - N/A   Scattered Clouds
3:30 PM 39.2 °F 35.9 °F 30.2 °F 70% 30.18 in 6.2 mi WNW 4.6 mph - N/A   Scattered Clouds
4:00 PM 38 °F - 25 °F 46% 30.21 in 6 mi WSW 4.5 mph - -   Partly Cloudy
4:00 PM 37.4 °F 34.9 °F 30.2 °F 75% 30.21 in 6.2 mi West 3.5 mph - N/A   Scattered Clouds
4:30 PM 37.4 °F 34.9 °F 30.2 °F 75% 30.21 in 6.2 mi WNW 3.5 mph - N/A   Scattered Clouds
5:00 PM 36 °F - 24 °F 49% 30.22 in 6 mi West 4.5 mph - -   Scattered Clouds
5:00 PM 35.6 °F 32.8 °F 30.2 °F 81% 30.21 in 6.2 mi West 3.5 mph - N/A   Scattered Clouds
5:30 PM 35.6 °F - 30.2 °F 81% 30.21 in 4.3 mi Calm Calm - N/A   Mostly Cloudy
6:00 PM 31 °F - 24 °F 66% 30.24 in 6 mi West 2.2 mph - -   Mostly Cloudy
6:00 PM 35.6 °F - 30.2 °F 81% 30.24 in 5.0 mi Calm Calm - N/A   Mostly Cloudy
6:30 PM 35.6 °F - 30.2 °F 81% 30.24 in 5.0 mi Calm Calm - N/A   Mostly Cloudy
7:00 PM 32 °F - 26 °F 72% 30.27 in 6 mi Calm Calm - -   Mostly Cloudy
7:00 PM 35.6 °F - 30.2 °F 81% 30.27 in 5.0 mi Calm Calm - N/A   Overcast
7:30 PM 35.6 °F - 30.2 °F 81% 30.27 in 5.0 mi Calm Calm - N/A   Unknown
8:00 PM 32 °F - 27 °F 74% 30.28 in 6 mi Calm Calm - -   Mostly Cloudy
8:00 PM 35.6 °F - 30.2 °F 81% 30.27 in 5.0 mi Calm Calm - N/A   Unknown
8:30 PM 37.4 °F - 30.2 °F 75% 30.27 in 5.0 mi SW 2.3 mph - N/A   Unknown
9:00 PM 33 °F - 29 °F 77% 30.28 in 6 mi SW 2.2 mph - -   Mostly Cloudy
9:00 PM 37.4 °F - 30.2 °F 75% 30.27 in 5.0 mi Calm Calm - N/A   Unknown
9:30 PM 35.6 °F 32.8 °F 32.0 °F 87% 30.27 in 5.0 mi WSW 3.5 mph - N/A   Unknown
10:00 PM 34 °F - 28 °F 69% 30.29 in 6 mi SW 2.2 mph - -   Mostly Cloudy
10:00 PM 35.6 °F - 32.0 °F 87% 30.27 in 5.0 mi Variable 1.2 mph - N/A   Unknown
10:30 PM 35.6 °F - 32.0 °F 87% 30.30 in 5.0 mi Variable 1.2 mph - N/A   Partly Cloudy
11:00 PM 34 °F - 28 °F 69% 30.30 in 6 mi ENE 2.2 mph - -   Overcast
11:00 PM 33.8 °F 30.8 °F 32.0 °F 93% 30.30 in 5.0 mi East 3.5 mph - N/A   Mostly Cloudy
11:30 PM 33.8 °F 29.6 °F 32.0 °F 93% 30.30 in 4.3 mi East 4.6 mph - N/A   Mostly Cloudy